www.pogodaiklimat.ru

Погода и климат >> Архив погоды >> Россия >> Воронежская область >> Павловск


ПОГОДА в Павловск

  • Прогноз погоды в Павловск
  • Монитор погоды в Павловск

АРХИВ ПОГОДЫ в Павловск

Время (UTC), дата Ветер
(напр.,м/с)
 
Видим.   Явления Облачность Т
(С)
Тd
(С)
f
(%)
Тe
(С)
Тes
(С)
Комфортность P
(гПа)
Po
(гПа)
Тmin
(С)
Tmax
(С)
R
(мм)
R24
(мм)
S
(см)
03 13.08 штиль 0 10 км ясно +9.8 +9.2 96 +9 +9 1019.7 1007.7 +8.0
06 13.08 С 1 10 км ясно +20.8 +12.2 58 +24 +33 комфорт 1019.6 1008.0
09 13.08 З 2 10 км 4/1 1000 м
[Cu hum Ci fib]
+26.1 +12.7 43 +28 +40 жарко 1018.0 1006.7
12 13.08 З 1 10 км 4/4 1000 м
[Cu hum]
+28.4 +12.7 38 +30 +36 жарко 1019.3 1008.0
15 13.08 З 1 10 км 4/0
[Ci fib]
+28.5 +13.0 38 +30 +31 жарко 1016.0 1004.8 +29.7
18 13.08 Ю 1 10 км ясно +20.7 +14.6 68 +25 +25 комфорт 1016.9 1005.3
21 13.08 Ю 1 10 км 6/0
[Ac trans]
+17.6 +14.5 82 +19 +19 1016.3 1004.7
00 14.08 В 1 10 км ясно +15.9 +13.0 83 +17 +17 1017.1 1005.3
03 14.08 ЮЗ 1 10 км ясно +16.1 +12.7 80 +17 +17 1016.1 1004.4 +14.5
06 14.08 ЮЗ 3 10 км ясно +25.9 +15.3 52 +29 +35 душно 1016.7 1005.3
09 14.08 ЮЗ 3 10 км ясно +30.4 +16.0 42 +33 +45 душно 1014.3 1003.1
12 14.08 ЮЗ 3 10 км 3/0
[Ci fib]
+33.0 +16.3 37 +36 +42 очень
душно
1013.8 1002.7
15 14.08 ЮЗ 2 10 км ясно +30.7 +15.6 40 +33 +35 душно 1013.0 1001.9 +33.8
18 14.08 ЮЗ 1 10 км ясно +23.2 +17.2 69 +28 +28 душно 1014.1 1002.7
21 14.08 В 1 10 км ясно +20.2 +16.2 78 +24 +24 комфорт 1013.4 1001.9
00 15.08 В 1 10 км ясно +18.0 +15.3 84 +19 +19 1014.3 1002.7
03 15.08 штиль 0 10 км ясно +16.0 +14.2 89 +16 +16 1014.1 1002.4 +15.0
06 15.08 Ю 1 10 км ясно +26.0 +13.1 45 +28 +37 жарко 1014.0 1002.7
09 15.08 ЮВ 5 10 км ясно +31.3 +11.5 30 +32 +39 жарко 1013.2 1002.0
12 15.08 ЮВ 5 10 км 4/0
[Ci sp]
+32.6 +11.7 28 +33 +36 жарко 1012.4 1001.3
15 15.08 ЮВ 4 10 км 4/0
[Ci sp]
+31.4 +13.7 34 +33 +33 жарко 1010.6 999.6 +33.5
18 15.08 В 1 10 км 8/0
[Ci sp]
+23.9 +17.4 67 +28 +28 душно 1011.4 1000.0
21 15.08 В 1 10 км 9/0
[Ac trans Ci sp]
+23.1 +16.8 68 +28 +28 душно 1010.3 999.0
00 16.08 штиль 0 10 км 9/0
[Ac trans]
+19.3 +16.7 85 +21 +21 комфорт 1011.5 1000.0
03 16.08 ЮВ 3 10 км 9/0
[Ac cuf Ci sp]
+20.5 +12.8 61 +23 +23 комфорт 1010.0 998.5 +18.6
06 16.08 ЮВ 3 10 км 9/0
[Ac cuf Ci sp]
+25.1 +10.5 40 +26 +27 жарко 1011.3 1000.0
09 16.08 ЮВ 3 10 км 9/9 1000 м
[Sc]
+28.3 +9.2 30 +28 +29 жарко 1008.2 997.0
12 16.08 ЮВ 3 10 км 9/9 1000 м
[Sc]
+26.9 +8.3 31 +27 +28 жарко 1010.0 998.7
15 16.08 ЮВ 2 10 км 9/9 1000 м
[Sc]
+25.6 +13.1 46 +28 +28 жарко 1007.4 996.2 +28.7
18 16.08 штиль 0 10 км 9/9 1000 м
[Sc]
+21.6 +15.7 69 +25 +25 комфорт 1008.7 997.3
21 16.08 штиль 0 10 км 9/9 1000 м
[Sc]
+20.3 +16.0 76 +23 +23 комфорт 1007.4 996.0
00 17.08 штиль 0 10 км 9/9 1000 м
[Sc]
+19.1 +15.2 78 +20 +20 1008.8 997.3
03 17.08 штиль 0 10 км 9/9 1000 м
[Sc]
+18.8 +16.5 86 +20 +20 1007.4 995.9 +17.3
06 17.08 Ю 2 10 км {ливн. осадки} 10/10 1000 м
[Cb cap]
+20.3 +19.0 92 +25 +25 комфорт 1008.8 997.3
09 17.08 З 1 10 км {ливн. осадки} 10/10 1000 м
[Cb cap]
+22.5 +18.9 80 +28 +28 душно 1008.0 996.7
12 17.08 ЮЗ 1 10 км слаб. ливневой дождь 10/10 1000 м
[Cb cap]
+21.7 +19.7 88 +27 +27 душно 1007.9 996.6
15 17.08 З 2 10 км {ливн. осадки} 10/10 1000 м
[Cb cap]
+21.5 +20.1 92 +27 +27 душно 1007.8 996.5 +23.0 2
18 17.08 ЮВ 2 10 км {ливн. осадки} 3/0
[Ac trans]
+18.7 +17.5 93 +20 +20 1008.8 997.3
21 17.08 Ю 1 4000 м дымка ясно +16.9 +16.1 95 +18 +18 1008.1 996.5
00 18.08 штиль 0 2000 м дымка 10/10 600 м
[St]
+16.5 +15.6 94 +16 +16 1008.7 997.1
03 18.08 Ю 1 2000 м дымка 10/10 300 м
[St]
+17.3 +16.8 97 +18 +18 1009.6 998.0 +15.3 0.3
06 18.08 штиль 0 500 м туман ?/? +19.3 +18.3 94 +21 +21 комфорт 1011.5 1000.0
09 18.08 СЗ 1 4000 м дымка {туман} 9/9 600 м
[Sc]
+23.7 +19.0 75 +28 +30 душно 1010.7 999.4
12 18.08 штиль 0 4000 м дымка {туман} 9/9 600 м
[Sc diur, vesp]
+26.1 +19.1 65 +31 +32 очень
душно
1010.8 999.5
15 18.08 СЗ 1 10 км 9/4 1000 м
[Sc diur, vesp Ac und]
+25.2 +18.6 67 +30 +30 душно 1011.3 1000.0 +27.3
18 18.08 штиль 0 10 км {гроза} 9/9 1000 м
[Sc]
+22.4 +19.2 82 +28 +28 душно 1014.1 1002.7
21 18.08 штиль 0 10 км 9/9 1000 м
[Sc]
+20.0 +18.4 91 +23 +23 комфорт 1013.0 1001.5
00 19.08 СЗ 2 10 км 9 баллов +19.0 +16.8 87 +21 +21 комфорт 1015.6 1004.0
03 19.08 СЗ 2 4000 м слаб. ливневой дождь 10/10 600 м
[Cb cap]
+17.3 +16.3 94 +18 +18 1015.6 1004.0 +17.1 0.6
06 19.08 СЗ 2 10 км 6 баллов +19.1 +16.9 87 +21 +24 комфорт 1016.9 1005.3
09 19.08 СЗ 2 10 км 9/0
[Ci sp]
+25.6 +16.9 59 +29 +40 душно 1016.5 1005.2
12 19.08 С 4 10 км 10 баллов +23.8 +17.3 67 +28 +28 душно 1018.1 1006.7
15 19.08 С 2 10 км 8/0
[Ac cuf]
+22.6 +15.6 65 +27 +27 душно 1017.4 1005.9 +26.0 0.0
18 19.08 С 1 10 км ясно +20.6 +16.2 76 +25 +25 комфорт 1018.3 1006.7
21 19.08 штиль 0 10 км ясно +17.6 +15.7 89 +18 +18 1019.8 1008.1
00 20.08 штиль 0 10 км ясно +16.8 +15.1 90 +17 +17 1021.1 1009.3

 

Местоположение метеостанции Павловск (Воронежская область, Россия): широта 50.43 долгота 40.47 высота над уровнем моря 99 м.

В архиве по умолчанию представлена погода в Павловск за последнюю неделю. Архивные данные за месяц целиком и за предыдущие месяцы, начиная с января 2011 года, Вы можете получить, выбрав интересующий диапазон дат из раскрывающегося списка и нажав кнопку "Ввод!".


*Определитесь, кто Вы:
робот инопланетянин человек

Внимание! Время в таблицах - всемирное. Для получения местного времени необходимо прибавить поправку, которая равна 3 ч.

Смотрите также архив погоды в соседних городах и на ближайших метеорологических станциях:

Погода в Калаче (Воронежская область, Россия) (41 км)
Погода в Богучаре (Воронежская область, Россия) (56 км)
Погода в Каменной Степи (Воронежская область, Россия) (71 км)
Погода в Казанской (Ростовская область, Россия) (85 км)
Погода в Лисках (Воронежская область, Россия) (93 км)
Погода в Урюпинске (Волгоградская область, Россия) (116 км)
Погода в Анне (Воронежская область, Россия) (117 км)
Погода в Чертково (Ростовская область, Россия) (119 км)
Погода в Беловодске (Луганская область, Украина) (149 км)
Погода в Борисоглебске (Воронежская область, Россия) (154 км)

Пояснения к столбцам:

Ветер - указаны скорость ветра в м/с - средняя за 10 мин, порывы в срок и между сроками (в фигурных скобках) и направление, откуда дует ветер: С - северный, СВ - северо-восточный, В - восточный, ЮВ - юго-восточный, Ю - южный, ЮЗ - юго-западный, З - западный, СЗ - северо-западный.
Видимость - горизонтальная дальность видимости в метрах или километрах. При видимости от 1 до 10 км при отсутствии осадков обычно наблюдается дымка, при ухудшении видимости до 1 км и менее - туман. В сухую погоду видимость может ухудшаться дымом, пылью или мглою.
Явления - указаны атмосферные явления, наблюдавшиеся в срок или в последний час перед сроком; фигурными скобками обозначены явления, наблюдавшиеся между сроками (за 1-3 часа до срока); квадратными скобками обозначены град или гололедные отложения с указанием их диаметра в мм.
Облачность - указаны через наклонную черту общая и нижняя облачность в баллах и высота нижней границы облаков в метрах; квадратными скобками обозначены формы облаков: Ci - перистые, Cs - перисто-слоистые, Cc - перисто-кучевые, Ac - высококучевые, As - высокослоистые, Sc - слоисто-кучевые, Ns - слоисто-дождевые, Cu - кучевые, Cb - кучево-дождевые. Подробнее классификацию облаков см. в Атласе облаков (PDF).
T - Температура воздуха - температура, измеренная на высоте 2 м над землей.
Td - Температура точки росы - температура, при понижении до которой содержащийся в воздухе водяной пар достигнет насыщения.
f - Относительная влажность воздуха - влажноcть воздуха, измеренная на высоте 2 м над землей.
Te - Эффективная температура - температура, которую ощущает одетый по сезону человек в тени. Характеристика душности погоды. При расчете учитывается влияние влажности воздуха и скорости ветра на теплоощущения человека.
Tes - Эффективная температура на солнце - температура, которую ощущает человек, с поправкой на солнечный нагрев. Характеристика знойности погоды. Зависит от высоты солнца над горизонтом, облачности и скорости ветра. Ночью, в пасмурную погоду, а также при ветре 12 м/с и более поправка равна нулю.
P - Атмосферное давление - приведенное к уровню моря атмосферное давление.
Po - Атмосферное давление - измеренное на уровне метеостанции атмосферное давление.
Tmin - Минимальная температура - минимум температуры воздуха на высоте 2 м над землей.
Tmax - Максимальная температура - максимум температуры воздуха на высоте 2 м над землей.
R - Количество осадков - Количество выпавших осадков за период времени, мм. При наведении курсора мыши на число - период времени, за который выпало указанное количество осадков.
R24 - Количество осадков - Количество выпавших осадков за 24 часа, мм.
S - Снежный покров - Высота снежного покрова, см. При наведении курсора мыши на число - состояние снежного покрова и степень покрытия местности в баллах.